GFSMA_sfc_30mbdewp_000.txt.gz
Dewpoint
55 54 51 50 49 48 48 49 48 49 49 45 42 39 40 42 41 41 46 46 42 46 47 48 50 53 54 56 58 59 60 61 61 63 62 61 61 62 62 61 61 60 60
53 52 50 50 48 48 49 47 47 49 49 47 43 41 39 41 41 43 44 44 44 44 48 49 50 52 53 55 56 57 58 59 60 61 62 62 61 61 62 62 61 61 61
50 52 51 50 51 51 49 49 50 49 49 48 45 43 41 42 42 41 43 44 42 45 50 52 51 52 53 52 52 53 53 55 57 59 61 62 62 62 61 62 62 61 61
49 50 51 50 51 53 50 50 49 48 48 47 47 46 41 41 42 42 42 41 42 40 47 52 54 52 49 48 48 48 49 51 52 55 56 60 61 62 62 62 61 61 61
49 48 48 50 51 50 50 50 49 48 48 48 47 45 45 43 40 41 41 41 41 41 43 48 52 51 50 48 46 45 46 47 50 53 54 56 60 61 61 61 61 61 61
45 46 47 48 50 49 47 48 50 48 47 47 47 46 47 46 44 42 40 41 41 41 41 41 49 50 50 48 45 43 42 44 45 47 50 54 56 59 60 60 61 61 61
43 44 44 45 43 44 45 45 44 43 44 47 46 46 45 46 48 47 44 41 40 40 39 40 45 44 45 48 47 41 39 41 43 45 47 49 51 55 57 58 61 61 61
41 39 41 41 43 43 42 44 46 43 40 41 42 42 39 39 42 43 44 44 41 40 39 39 42 41 41 44 45 42 38 40 41 43 44 47 49 53 52 53 55 58 61
39 39 39 41 42 41 40 41 41 41 41 40 40 40 37 36 38 39 40 41 44 45 47 48 41 41 42 39 41 42 42 41 41 40 41 45 48 50 49 50 50 51 56
39 37 37 39 40 41 39 42 39 41 41 39 41 42 41 40 39 38 40 41 42 45 47 46 46 45 40 38 39 40 40 41 42 40 40 42 46 47 49 48 49 50 54
37 36 36 37 40 39 40 41 39 41 42 41 40 38 38 36 37 36 35 36 38 40 44 48 47 47 45 35 36 37 38 37 41 46 46 42 42 45 46 48 48 49 52
35 36 37 37 40 39 39 40 42 41 40 40 40 38 37 36 34 34 33 34 35 36 39 41 47 46 46 44 37 39 39 39 41 42 45 46 44 43 43 44 45 48 50
35 34 37 36 37 37 38 38 39 41 39 38 38 38 38 36 36 35 34 33 33 34 35 38 41 44 44 45 43 40 38 37 36 39 41 44 46 48 48 48 48 47 47
35 34 37 37 36 37 37 38 38 38 38 39 37 36 36 36 36 36 36 34 31 33 34 35 38 40 43 44 43 40 37 32 34 39 38 39 43 38 43 46 48 48 47
34 36 37 36 36 36 37 37 37 36 36 37 37 37 35 35 36 36 36 36 33 31 29 28 34 37 40 42 43 40 36 33 33 36 36 34 37 35 33 34 36 40 42
34 35 36 37 37 37 36 36 36 36 35 35 36 36 36 35 34 32 32 34 34 31 29 30 27 27 26 28 36 38 34 36 35 34 31 28 30 30 32 32 34 36 38
34 34 34 34 34 34 37 37 36 35 32 31 32 32 32 32 32 31 29 27 25 25 24 22 24 24 25 28 27 26 28 34 35 33 31 29 29 30 30 29 28 28 30
33 31 31 31 32 32 34 36 35 35 33 32 30 29 29 28 27 25 24 24 23 23 22 20 21 21 20 22 23 25 27 25 29 33 32 31 29 29 30 29 27 26 27
30 27 24 22 20 21 21 21 22 24 23 22 21 22 23 23 23 22 22 22 22 22 22 21 20 20 20 21 20 22 22 25 27 24 31 32 32 31 31 31 29 28 28
23 20 19 20 21 20 20 23 22 23 22 20 21 20 21 21 22 22 23 23 21 21 20 20 19 18 19 20 20 18 19 21 21 22 21 26 31 31 30 30 30 30 30
19 18 18 20 21 20 22 23 22 21 20 19 19 19 19 21 23 22 20 20 20 19 19 19 19 19 19 19 20 23 23 24 25 27 26 26 26 31 32 33 31 31 32
18 18 20 20 20 19 23 23 23 21 20 19 18 18 18 20 20 21 22 22 21 18 18 17 17 17 18 19 21 22 23 23 22 25 24 24 26 26 28 30 30 30 30
19 20 21 21 21 22 23 23 22 20 18 17 17 18 19 19 21 21 23 24 23 26 26 23 20 20 19 19 20 21 21 22 23 25 24 23 24 24 26 26 32 29 28
19 20 21 21 21 22 24 23 22 20 18 18 18 18 18 19 22 21 20 22 22 22 22 23 24 24 23 22 23 25 26 26 25 26 26 23 25 24 26 27 27 28 29
19 21 22 25 24 23 24 27 26 22 21 19 19 21 22 21 20 20 22 23 23 22 22 23 24 26 26 26 26 25 23 23 23 25 25 22 22 23 24 25 28 29 28
20 25 25 26 25 24 25 25 24 22 20 20 21 21 19 22 25 25 25 25 24 24 22 24 23 22 21 26 29 30 27 23 20 20 21 21 22 23 24 24 26 28 29

GFSMA_sfc_30mbdewp_003.txt.gz
Dewpoint
52 53 52 50 49 49 49 49 49 48 50 49 45 41 37 37 39 41 43 52 51 49 49 49 51 53 55 57 60 61 61 61 62 62 61 63 63 62 62 62 62 61 60
54 53 51 51 49 50 50 48 47 47 48 49 47 44 38 36 37 40 42 47 50 47 48 47 48 51 52 54 57 58 59 60 61 62 62 63 62 62 62 62 62 61 60
50 50 51 51 51 52 52 50 49 50 49 50 50 46 43 40 39 39 40 44 47 48 46 48 51 51 52 53 55 57 57 58 59 60 61 61 63 62 61 62 62 62 61
49 49 47 47 51 51 50 48 48 49 49 49 48 48 46 43 41 41 41 42 45 44 47 48 52 53 54 53 52 53 54 55 55 57 58 61 61 62 62 62 61 62 62
47 46 46 46 48 48 48 49 49 49 46 45 45 44 45 45 44 41 41 41 43 43 42 46 50 53 55 54 49 49 48 51 53 54 56 57 58 61 62 62 62 62 62
42 41 42 42 43 44 43 43 44 44 44 44 45 44 47 48 49 47 44 42 42 43 41 42 48 50 53 53 51 48 47 47 48 51 54 55 57 59 60 61 61 61 61
39 40 40 44 44 41 42 42 43 40 41 43 40 40 41 43 42 43 45 47 45 43 42 42 43 47 50 51 51 46 45 44 45 47 49 51 54 57 58 60 60 60 61
43 40 41 43 42 40 39 38 37 41 41 41 39 40 37 39 40 42 43 46 46 48 49 46 42 45 45 48 49 49 44 43 43 45 47 50 52 53 54 54 57 59 60
41 39 39 39 39 41 38 39 41 37 38 40 42 41 38 37 39 41 40 38 40 43 44 47 48 46 42 41 44 48 48 44 44 43 45 44 48 50 53 52 52 53 54
37 38 37 37 40 40 39 40 41 41 42 40 42 40 40 38 36 34 35 36 36 37 42 44 46 47 47 44 43 43 45 44 43 43 41 42 43 48 50 50 51 51 51
36 36 37 37 39 39 38 39 40 40 40 40 40 39 38 37 37 33 30 33 34 36 39 40 40 46 47 46 45 42 42 42 40 41 43 44 44 44 45 51 50 50 51
36 33 36 37 38 38 38 38 41 40 39 39 38 38 37 36 35 34 32 32 33 34 35 36 39 41 46 45 45 46 44 41 41 44 45 46 47 47 46 45 48 48 49
32 34 36 36 35 35 37 37 38 38 38 37 37 37 37 35 36 35 35 31 32 32 33 34 37 37 42 45 44 45 46 44 41 41 42 40 42 45 47 50 48 47 47
35 36 37 36 37 36 36 36 36 36 37 36 36 36 36 36 36 36 35 34 32 31 32 31 32 37 35 43 45 44 45 43 42 39 39 36 42 36 39 42 46 49 49
35 37 37 36 35 35 36 35 35 35 36 36 36 37 37 36 35 36 36 36 34 30 29 29 30 30 32 35 39 41 44 44 42 38 39 33 39 36 33 33 36 39 43
34 34 33 34 33 33 34 36 35 34 34 34 34 34 35 36 37 37 36 35 34 31 28 28 28 29 29 28 31 35 34 40 41 39 36 29 30 32 32 31 31 34 37
33 32 31 30 30 31 32 34 34 34 34 33 33 33 32 32 31 35 35 32 32 32 28 24 24 25 23 23 23 26 32 32 37 39 34 27 27 29 30 29 28 27 27
30 31 29 25 24 23 24 27 31 32 29 24 23 22 23 23 24 26 28 27 25 25 24 22 22 22 22 23 23 23 26 24 35 37 36 29 30 31 31 30 28 27 26
26 23 22 21 21 22 22 23 23 23 23 22 21 21 20 20 19 21 24 24 24 22 21 19 20 21 20 21 20 21 22 22 23 31 33 34 31 31 31 30 30 28 27
21 19 18 18 20 22 23 22 21 20 20 20 21 21 20 19 20 22 23 23 23 20 19 19 19 19 19 20 22 23 24 26 24 26 25 32 33 33 33 31 29 30 29
21 17 17 19 21 22 22 21 21 20 19 19 19 19 18 20 21 24 23 23 21 20 19 18 18 17 17 18 19 22 22 22 23 27 25 25 27 29 31 32 34 34 35
16 17 19 20 22 21 24 23 21 19 18 18 17 17 19 20 22 23 27 27 25 23 19 17 16 16 17 18 20 20 20 20 20 25 25 23 25 24 28 30 32 32 29
17 17 20 22 21 21 23 22 22 20 18 18 18 18 18 17 21 23 23 23 21 22 23 25 22 21 20 21 20 19 19 20 21 24 24 22 25 23 25 26 28 26 25
15 19 21 23 23 23 25 25 23 22 21 21 20 20 20 22 25 22 21 21 22 22 22 22 22 23 24 24 23 22 25 27 26 26 26 22 23 22 24 25 27 30 29
18 21 24 24 23 24 26 27 27 25 23 22 21 21 20 19 20 23 24 24 24 24 23 22 23 27 29 30 28 28 25 23 21 21 24 23 23 22 23 23 24 27 27
20 24 23 24 25 25 27 25 26 25 21 21 21 20 20 21 27 26 23 22 20 19 20 21 21 21 21 21 21 25 26 24 23 20 20 19 19 22 21 24 24 25 26

GFSMA_sfc_30mbdewp_006.txt.gz
Dewpoint
52 52 52 51 50 50 50 49 51 49 48 49 49 47 44 40 37 39 41 45 50 53 53 50 49 50 52 56 58 60 61 61 61 62 62 63 62 62 62 61 63 63 62
54 53 51 51 50 52 52 51 49 49 49 50 50 49 47 43 38 37 40 42 50 51 51 50 49 49 49 51 55 58 59 60 61 61 62 62 61 61 62 62 62 63 62
51 51 49 47 49 50 49 49 49 49 48 48 47 48 49 47 44 40 39 40 44 50 51 50 49 49 49 50 53 56 58 59 60 60 61 62 61 61 61 62 62 62 62
48 46 43 43 46 46 46 44 46 45 44 45 46 45 46 47 46 44 43 42 42 45 49 51 50 50 51 50 49 51 54 56 57 58 59 60 60 60 62 62 62 61 60
43 42 41 41 44 44 43 44 42 44 41 41 40 39 42 44 45 47 45 44 43 44 44 46 50 50 51 53 50 50 51 51 52 54 56 59 59 60 60 61 62 61 60
42 41 41 43 44 43 40 40 39 39 41 42 38 38 40 41 42 44 47 47 47 47 46 44 43 49 51 53 54 50 48 49 49 50 52 55 57 58 59 60 61 60 60
43 42 43 42 43 41 40 39 40 40 37 39 37 36 38 36 40 41 45 44 44 43 42 41 46 44 48 52 53 50 47 47 47 48 49 52 54 57 58 60 60 60 60
40 39 38 39 41 39 38 39 41 39 40 40 39 40 31 34 34 39 41 39 41 41 41 41 44 46 46 46 51 52 49 46 46 46 48 50 52 55 55 56 58 59 60
38 37 37 38 39 40 38 38 40 40 39 41 42 40 36 35 37 39 36 35 36 37 40 43 41 39 46 45 45 46 51 50 49 48 48 49 49 48 51 53 54 54 56
36 36 37 38 40 39 38 40 41 40 39 38 40 40 39 37 34 33 34 34 35 34 37 40 37 39 47 47 46 46 46 46 49 48 47 46 45 44 48 50 52 52 52
35 36 38 38 37 38 38 39 40 39 40 39 39 39 38 37 37 34 29 31 32 33 35 36 36 40 41 47 46 46 45 45 45 44 44 43 43 45 45 46 50 51 51
34 36 36 36 36 37 37 37 36 37 37 36 37 37 37 35 34 34 31 33 31 32 34 34 35 36 37 42 46 44 43 44 45 45 45 46 46 48 47 48 47 48 50
35 37 37 36 36 37 36 36 35 35 36 35 35 36 36 36 36 35 34 34 32 32 33 34 33 33 35 36 40 45 45 44 42 43 45 44 41 44 45 47 50 51 48
37 37 36 35 34 34 35 35 34 34 34 33 33 34 35 36 36 35 35 33 31 30 31 31 32 31 32 33 36 40 42 43 44 44 44 44 43 39 37 40 42 46 48
36 35 35 33 33 33 33 34 33 33 33 32 32 33 33 34 35 36 36 34 30 27 29 30 29 30 30 32 32 32 38 41 43 42 42 43 43 42 39 33 35 39 42
34 32 31 30 30 30 32 33 32 32 33 33 33 33 32 32 32 32 33 35 33 30 27 30 29 27 27 26 25 28 35 35 40 43 42 42 38 38 34 34 31 32 35
33 31 30 28 25 25 26 27 28 31 33 28 26 24 22 23 23 24 25 26 30 32 30 28 28 23 22 22 23 24 29 33 36 38 39 41 39 35 32 30 28 27 27
30 28 27 25 22 22 23 23 26 26 23 21 21 21 20 20 20 20 21 21 24 24 26 27 22 21 20 21 22 24 26 26 34 34 38 39 39 37 31 30 28 28 26
28 28 23 20 19 21 22 24 24 22 21 21 21 20 19 19 18 18 20 22 23 22 22 20 20 21 20 20 20 25 24 24 25 29 29 36 38 37 34 31 29 28 26
36 29 19 18 20 22 24 22 20 20 20 19 20 20 19 18 18 20 22 23 23 23 22 20 20 19 19 18 21 22 21 22 22 26 27 26 29 34 35 36 34 32 30
36 24 18 18 22 23 22 21 21 20 19 19 19 18 17 18 17 19 23 28 27 25 22 19 18 18 16 17 16 21 19 20 20 27 25 25 25 25 29 30 33 34 33
23 18 19 21 22 22 25 24 21 20 19 19 18 18 19 18 19 21 22 23 22 24 23 24 21 18 17 17 19 19 19 18 16 24 23 22 24 23 25 28 31 31 30
26 20 20 22 21 22 25 25 24 21 21 19 20 20 20 18 21 23 24 22 22 22 22 23 22 21 21 20 20 20 19 19 20 23 25 22 24 21 23 24 28 26 25
23 19 23 23 23 23 25 27 26 25 23 23 22 21 20 20 20 20 20 24 24 24 23 22 21 22 23 23 23 22 22 23 26 26 25 22 23 23 24 24 25 29 29
19 23 24 23 24 26 27 26 25 24 22 20 21 20 19 21 21 23 24 22 21 20 20 21 24 25 27 28 28 27 25 24 21 21 23 22 21 19 20 21 24 26 26
23 23 23 24 24 21 24 22 20 21 18 19 20 18 19 19 20 23 24 23 21 19 20 20 21 21 21 21 20 22 24 23 23 21 21 20 19 20 18 21 21 23 25

GFSMA_sfc_30mbdewp_009.txt.gz
Dewpoint
52 52 52 51 51 51 51 50 49 49 48 49 50 49 49 47 44 41 39 41 43 45 49 50 52 51 52 54 57 59 59 60 61 61 62 62 62 61 61 60 60 62 62
53 53 50 49 49 50 49 49 48 48 48 48 45 47 48 48 46 43 41 40 41 46 51 51 50 51 51 52 54 57 58 59 59 59 61 62 62 61 61 61 60 60 62
51 48 45 44 45 48 46 45 45 45 42 43 42 44 44 44 44 45 44 43 42 43 46 51 53 54 53 53 53 54 57 59 59 58 59 61 62 61 60 61 61 60 60
47 45 42 42 44 46 45 43 44 40 40 41 40 39 40 43 42 46 47 45 45 45 45 47 48 51 53 53 52 51 52 55 58 57 58 59 60 61 60 60 59 60 60
43 42 42 44 45 44 42 41 40 41 39 40 38 38 38 39 38 46 45 45 44 43 41 41 46 47 48 50 51 51 49 50 54 54 55 57 58 59 60 60 59 59 59
42 42 41 43 43 40 39 39 39 40 40 41 38 35 35 35 37 45 43 42 40 40 39 39 42 44 46 48 49 50 50 49 49 50 52 53 55 57 59 59 59 58 59
38 37 38 38 39 38 38 40 40 38 37 41 38 37 35 32 36 42 42 41 39 39 38 39 40 39 41 45 46 48 51 50 49 49 51 53 53 55 56 58 59 59 58
37 36 36 38 39 38 37 38 39 38 39 41 40 39 34 34 38 38 39 37 37 39 38 37 38 33 33 45 46 46 48 52 52 50 51 52 53 53 55 54 55 57 58
36 36 37 39 39 39 38 40 40 39 38 39 41 39 35 34 36 37 34 35 35 35 36 37 38 35 36 44 46 46 46 45 47 51 51 51 53 51 51 51 52 54 55
36 37 38 38 38 38 38 40 40 39 39 38 39 39 38 38 34 31 33 31 34 33 34 35 35 36 38 39 46 47 46 44 45 46 49 48 50 48 46 46 49 52 53
37 37 36 36 37 37 37 36 36 35 35 34 35 35 36 36 36 33 31 30 32 33 33 35 35 35 36 37 40 44 46 44 45 46 46 46 45 44 45 46 47 49 51
36 37 37 37 37 36 36 35 35 34 34 35 35 35 35 34 34 34 32 31 31 32 33 34 34 34 34 34 37 37 44 45 44 44 46 46 44 45 47 48 48 48 49
38 36 37 36 36 35 35 34 33 33 33 30 32 33 34 34 36 34 33 30 31 31 33 34 34 34 33 34 35 37 41 45 44 44 45 45 45 43 41 44 46 49 51
37 37 36 34 33 33 34 34 32 32 32 30 29 31 32 33 34 34 31 30 26 27 28 28 33 32 32 33 35 36 37 41 43 44 44 45 43 43 43 37 39 42 47
37 36 35 34 35 33 32 33 30 29 31 31 31 32 32 32 30 31 31 31 30 24 22 27 29 28 30 30 29 28 34 35 40 44 43 44 45 44 44 43 37 37 42
35 34 35 35 31 28 29 30 29 29 31 31 32 31 26 27 24 26 23 24 27 29 24 28 28 29 27 22 22 26 29 36 36 39 39 40 41 44 43 42 41 33 36
34 34 33 29 27 25 25 24 24 26 29 29 25 23 21 22 21 21 21 21 22 23 23 24 28 29 24 22 21 26 25 27 37 35 35 36 39 42 41 42 41 37 32
31 33 34 33 28 23 22 22 23 28 24 21 20 20 19 18 18 19 19 19 20 21 23 21 26 23 20 21 21 23 23 22 24 31 34 36 36 38 41 38 34 32 32
31 33 35 31 24 21 22 23 25 23 21 20 20 19 19 18 17 17 18 20 22 23 23 22 21 22 22 21 17 24 22 22 21 26 31 33 34 36 39 38 35 31 29
35 35 35 29 22 21 23 24 22 20 21 20 20 20 19 18 17 18 19 25 26 26 25 23 22 21 20 18 21 19 18 20 18 21 26 29 30 31 33 36 35 33 30
35 36 28 21 22 23 23 21 20 21 21 20 20 20 19 19 19 18 18 21 22 25 24 24 23 20 18 17 15 20 18 19 18 22 24 23 25 26 25 30 34 35 32
36 23 29 25 23 22 24 23 23 22 21 20 20 20 20 21 19 18 19 21 21 23 23 23 22 22 23 20 18 19 19 17 14 22 24 22 24 21 22 24 30 32 33
30 27 21 22 21 22 25 26 27 25 24 23 23 22 20 18 19 20 20 20 20 22 23 23 23 22 21 20 20 20 19 18 18 20 25 22 24 21 23 22 24 29 28
32 25 22 24 23 26 28 28 28 24 22 22 20 19 20 20 22 20 24 23 24 21 22 24 24 23 22 22 22 22 21 21 22 24 26 22 22 21 23 23 25 26 30
27 23 24 24 23 25 25 24 21 21 19 18 19 19 18 19 19 23 24 23 22 21 20 19 19 21 24 27 27 25 23 22 20 21 24 22 21 20 20 20 21 24 26
23 23 22 23 22 19 23 19 18 19 17 18 19 18 18 19 21 20 21 22 20 19 20 20 21 21 22 20 20 22 23 22 22 21 22 21 20 19 17 20 21 22 24

GFSMA_sfc_30mbdewp_015.txt.gz
Dewpoint
56 55 54 51 50 49 48 48 48 48 46 45 45 44 41 41 40 39 42 50 51 51 51 52 53 54 54 55 55 55 57 58 57 56 59 61 62 61 60 60 59 59 59
56 54 49 46 46 48 47 46 47 44 42 41 40 42 40 39 41 41 40 44 44 44 45 46 46 47 48 50 53 53 54 55 58 57 58 59 60 61 61 60 60 60 60
50 47 46 47 47 46 45 45 44 42 41 38 37 36 37 37 38 44 43 41 39 40 42 42 42 42 42 43 45 48 52 54 54 57 58 58 60 61 61 61 60 60 60
48 48 46 46 45 43 43 42 40 38 38 37 35 35 36 33 37 45 41 40 39 37 37 39 39 38 38 39 40 43 45 49 52 54 56 58 58 59 60 61 60 59 59
46 45 44 43 42 40 40 38 37 38 36 34 28 31 29 27 37 41 41 40 39 38 36 35 35 34 36 36 37 39 42 44 47 51 54 56 56 57 59 60 60 59 58
42 41 41 42 39 38 38 37 36 35 36 35 28 29 28 31 40 40 37 37 38 37 36 35 34 31 33 34 36 37 40 42 44 45 49 55 56 56 57 58 59 58 58
39 40 39 39 39 37 39 37 35 33 30 36 30 25 26 36 39 36 36 36 35 34 34 34 32 30 29 31 33 37 38 41 44 44 44 48 52 56 56 57 57 56 57
39 38 40 38 39 37 39 39 36 31 33 38 29 26 19 21 29 34 31 34 33 35 33 33 33 32 32 31 32 36 39 39 40 44 45 46 47 51 55 55 56 55 55
38 39 40 40 39 39 38 39 38 36 32 34 39 29 23 20 28 27 29 30 34 32 31 31 31 31 33 34 34 33 34 37 37 41 45 46 46 47 52 54 55 54 53
39 38 39 40 40 39 39 38 36 35 31 26 26 32 31 30 23 21 23 26 29 27 28 30 30 32 33 35 35 36 36 36 37 39 44 45 47 45 49 52 53 51 50
39 38 38 39 39 38 38 36 32 29 27 24 23 24 24 24 24 26 18 19 21 22 25 24 28 29 28 34 32 31 34 38 38 40 44 45 46 47 48 50 51 49 49
39 40 39 39 39 37 35 33 33 30 28 26 24 23 20 19 18 21 20 18 17 16 18 21 23 23 21 29 29 31 31 33 33 39 44 45 46 46 47 49 48 48 49
39 39 40 39 36 34 34 33 30 29 28 24 23 20 24 23 25 23 21 17 19 18 18 19 20 20 20 19 28 31 30 32 35 41 43 44 45 45 43 44 46 48 50
36 40 39 36 35 34 31 32 31 31 30 28 27 28 27 26 29 29 26 24 20 18 15 16 18 20 20 20 21 30 30 29 37 40 43 43 43 44 45 43 40 41 45
37 39 38 35 38 35 34 33 32 31 30 29 29 30 29 27 30 28 25 25 22 19 17 16 15 16 18 18 20 23 28 29 30 40 39 40 41 41 43 45 44 42 40
37 38 37 36 36 35 32 32 30 29 30 27 27 28 28 27 25 25 24 23 21 19 17 14 12 13 15 15 19 20 25 30 28 34 37 37 38 39 40 42 44 45 42
35 35 36 36 34 32 32 33 30 28 26 25 27 28 25 23 21 21 20 18 16 15 14 14 12 14 18 20 19 19 25 27 29 33 36 36 37 37 38 39 41 43 43
33 34 34 33 34 35 34 30 25 23 24 24 24 23 21 21 21 20 20 18 16 16 15 13 14 18 19 21 22 22 25 22 26 27 32 34 35 36 37 37 40 42 42
33 33 32 34 35 34 31 25 25 25 25 23 22 23 22 21 21 20 19 17 17 17 16 18 15 14 17 19 22 23 29 24 23 20 26 31 32 33 35 36 38 40 39
34 35 36 36 33 26 24 24 24 23 22 22 23 23 23 22 20 19 19 22 18 19 17 16 16 15 15 15 21 20 22 21 20 17 16 25 27 30 30 34 36 39 39
34 36 35 31 29 25 22 23 22 22 23 23 23 21 20 20 20 19 17 17 18 18 18 17 15 14 16 14 19 24 22 19 18 20 17 18 20 23 28 30 36 37 39
32 34 30 30 29 22 26 28 27 25 23 20 16 16 15 14 15 17 18 18 19 18 19 18 21 15 12 14 16 23 23 22 18 18 19 15 19 18 22 25 29 35 38
30 32 33 27 24 26 28 28 26 20 17 16 15 14 14 14 16 16 16 17 22 22 22 21 21 16 14 14 17 18 19 19 18 18 18 15 17 17 18 19 25 33 35
31 32 28 24 25 24 26 23 22 19 16 15 14 15 15 15 16 17 21 19 17 15 16 19 22 21 18 18 17 20 20 19 18 17 19 17 15 21 19 20 24 28 34
25 24 24 25 24 21 22 20 19 18 17 16 16 16 16 15 17 20 19 18 15 13 18 18 20 23 24 22 21 20 22 21 18 14 14 17 15 19 21 22 23 22 29
22 24 24 23 20 20 19 19 18 19 18 17 16 15 16 18 19 17 15 17 15 17 16 16 16 17 18 19 21 20 17 19 21 17 15 18 17 18 17 23 25 24 24